RH
64 60 66 72 77 84 99 82 98 55 69 64 65 71 69 68 74 78 78 89 86 87 88 80 77 81 84 79 69 65 61 60 62 63 63 61 66 69 73 77 81 90 92 94
80 63 81 87 77 82 85 83 89 86 89 64 70 68 70 75 79 84 92 89 86 90 87 87 83 88 90 85 75 66 61 60 61 65 64 65 66 70 73 80 82 91 89 93
88 58 67 88 79 82 90 91 81 80 63 63 73 74 78 80 85 94 91 91 92 92 92 90 90 89 91 89 77 68 63 59 62 63 63 66 66 71 73 81 83 92 89 96
92 68 64 76 84 79 78 68 70 76 76 77 80 77 78 78 90 92 92 92 92 92 92 87 86 89 90 91 84 70 66 63 63 62 63 66 69 73 74 80 87 91 92 92
94 82 51 70 67 65 80 69 81 86 83 76 76 82 69 64 74 89 94 93 94 93 94 93 92 92 92 90 82 70 62 63 65 63 64 66 73 72 78 80 90 90 95 91
88 90 75 73 43 54 81 94 65 81 77 84 84 91 77 75 80 84 91 92 94 94 93 92 92 94 94 89 73 67 61 63 64 63 64 69 72 70 77 78 86 87 91 91
87 88 60 39 36 51 53 56 65 78 83 83 95 92 85 80 80 78 89 93 93 93 93 94 94 95 98 84 78 68 66 68 69 62 66 69 70 68 83 88 82 90 94 92
78 84 72 35 38 41 62 59 69 77 81 89 87 87 83 81 82 83 89 92 92 94 93 94 95 95 95 99 88 74 70 71 69 66 62 65 67 70 80 87 94 96 95 96
48 46 40 43 37 39 45 62 72 80 83 88 90 89 85 84 83 84 85 93 92 94 94 93 95 95 96 98 94 76 72 79 73 72 67 64 72 76 85 85 97 97 97 97
53 39 38 38 40 44 49 58 60 78 86 86 92 89 87 84 85 87 87 90 93 93 93 93 94 93 94 96 97 90 84 86 80 78 74 77 78 79 95 95 97 97 97 97
59 43 38 41 48 50 51 55 66 69 78 89 91 87 88 88 85 87 90 89 93 94 94 94 95 95 94 94 97 99 100 100 99 99 91 92 94 92 95 91 89 95 94 94
50 36 46 52 57 52 72 81 79 87 88 85 89 93 91 87 84 86 88 86 92 93 94 94 95 94 95 94 97 99 100 100 100 98 99 97 98 99 98 94 92 91 89 88
74 60 62 59 57 64 77 80 81 89 89 93 88 91 92 92 86 88 84 85 91 95 95 95 95 94 94 95 96 98 99 100 100 99 99 99 98 98 99 99 98 95 93 95
66 79 80 72 82 84 83 82 86 88 91 94 95 90 91 91 87 87 88 87 88 89 93 95 94 95 95 95 95 96 99 97 99 100 100 99 99 99 98 98 99 100 99 97
82 81 86 88 87 87 89 92 91 92 92 89 89 94 92 95 93 91 85 85 86 84 88 89 93 94 93 93 95 96 97 98 99 100 100 99 99 99 99 99 98 98 99 99
88 89 90 91 90 88 95 94 96 92 93 92 93 92 94 94 92 86 86 86 89 91 92 92 92 94 92 93 93 93 94 97 97 98 99 99 99 99 99 99 98 98 98 99
84 83 94 92 91 93 93 96 98 97 97 96 94 94 95 93 87 87 88 86 83 85 87 91 95 89 92 91 92 91 93 95 97 98 98 99 99 99 99 98 99 99 100 98
87 92 90 88 94 96 93 96 98 97 97 95 96 97 95 90 95 93 89 85 81 82 84 88 86 86 89 94 94 92 91 92 95 98 98 98 99 99 99 99 99 99 100 100
89 86 92 92 94 97 98 98 98 96 96 97 99 96 97 96 93 92 87 82 85 87 89 84 82 88 89 90 93 89 90 91 92 95 98 97 99 99 99 99 99 99 99 99
94 93 94 98 97 97 97 97 94 96 95 97 96 95 94 92 91 89 85 85 92 92 82 81 85 90 88 91 90 91 90 91 94 94 96 97 98 98 98 98 98 98 98 98
86 88 88 88 93 92 92 94 95 95 94 94 95 96 97 93 90 86 87 87 85 81 77 78 85 91 89 91 91 93 94 94 95 96 96 97 98 97 98 97 97 98 98 98
90 88 84 85 92 93 91 93 94 93 94 94 93 94 95 90 86 85 80 90 82 77 75 80 89 80 83 89 92 94 94 95 96 96 96 97 97 97 97 97 97 97 97 97
74 71 71 74 83 89 90 92 93 94 95 95 96 95 96 86 89 94 92 80 78 76 76 82 79 80 83 90 92 94 95 95 96 96 97 97 97 97 97 97 97 97 97 97
69 66 70 69 80 85 93 91 93 94 95 92 88 89 94 95 92 86 87 82 80 75 73 78 81 82 85 90 94 94 95 95 96 96 96 95 97 97 97 97 97 97 97 96
74 76 79 83 87 94 91 91 94 93 92 92 87 81 79 82 94 88 87 88 83 78 79 82 83 85 89 91 93 94 95 95 96 96 96 97 97 97 97 97 97 97 97 97
83 84 84 84 86 94 95 94 96 96 96 97 95 90 86 86 89 92 95 82 88 82 87 90 86 89 92 91 93 94 95 95 95 96 96 96 97 96 96 96 97 97 97 97
84 75 85 88 87 85 93 94 97 97 92 95 96 87 92 94 92 89 85 95 94 92 93 93 94 91 93 92 93 94 95 95 94 96 96 96 96 96 96 96 96 97 97 97
Wind_Speed
15 20 14 15 16 7 11 16 5 22 19 27 28 25 29 33 34 34 33 31 29 29 26 24 22 20 17 16 16 16 17 18 18 15 15 15 16 15 14 16 15 14 11 8
9 8 7 8 11 10 12 13 16 21 26 21 15 23 27 29 32 33 32 34 34 30 29 25 23 19 16 15 15 15 17 17 16 16 16 16 16 16 16 16 16 14 15 11
8 7 12 7 10 8 4 6 7 13 22 18 19 25 28 32 31 29 35 35 33 30 27 25 23 22 19 15 14 15 16 16 16 16 16 17 16 15 17 16 16 15 15 16
8 11 6 6 2 6 11 12 13 15 16 12 15 23 28 27 20 33 35 34 31 27 27 27 26 22 18 15 13 13 15 15 16 16 16 16 16 16 17 15 16 14 15 17
3 3 12 2 4 2 3 18 5 7 8 14 17 24 20 15 27 31 31 30 27 25 26 27 25 21 17 13 12 13 16 15 14 15 16 15 16 16 14 14 14 14 13 17
4 3 7 5 5 5 7 7 6 1 13 18 22 18 18 32 33 34 33 29 28 28 26 24 23 22 15 11 13 15 15 14 13 14 13 14 13 16 13 14 13 11 14 16
7 6 10 4 3 3 6 10 12 5 6 12 13 14 30 31 31 30 29 31 30 26 23 24 21 19 4 10 12 13 12 12 13 14 12 12 11 12 11 13 14 13 15 15
3 4 11 4 3 4 7 7 5 5 6 6 14 22 26 27 29 31 34 33 29 26 25 23 20 16 12 3 6 11 12 11 9 9 10 10 15 14 12 12 10 13 15 12
9 8 2 7 8 5 4 5 4 3 5 6 14 20 27 26 28 27 30 28 26 24 24 21 20 19 18 14 8 12 12 11 11 9 10 11 14 13 11 14 10 11 12 12
4 4 5 4 4 1 3 5 8 2 4 10 13 18 25 24 23 23 26 27 25 28 27 26 21 19 17 15 12 4 8 7 8 10 10 9 9 11 11 12 11 11 11 12
8 13 12 4 1 4 7 7 8 13 8 10 13 17 21 23 21 22 21 25 24 22 22 25 25 23 20 18 12 5 6 6 3 2 7 8 7 11 11 12 13 12 11 11
9 3 4 1 3 5 4 5 6 5 11 11 9 14 18 22 20 19 21 22 24 24 24 24 22 23 23 21 16 10 5 2 3 5 6 9 9 7 11 11 11 9 14 13
4 5 1 5 5 3 3 6 7 7 8 9 11 11 15 20 17 25 20 21 22 23 22 24 27 29 26 23 19 16 9 4 5 7 8 9 9 10 9 10 12 12 16 16
4 5 3 4 3 5 5 6 10 8 5 4 6 11 13 18 20 20 24 23 23 20 21 22 23 25 23 21 19 16 12 14 4 5 7 7 8 8 8 8 7 4 11 11
7 6 4 2 2 4 3 5 8 8 8 12 9 8 13 17 22 20 20 20 21 22 23 23 25 29 25 24 24 20 12 11 9 6 6 8 7 8 7 7 7 8 7 7
5 2 2 0 4 6 4 6 4 8 8 9 12 14 14 13 17 18 19 21 21 23 25 26 26 24 22 24 24 17 13 22 16 8 6 6 6 7 7 6 6 8 7 7
7 1 2 4 4 3 5 4 5 6 8 8 10 12 12 14 16 19 19 19 17 17 19 22 22 22 21 23 20 11 10 11 17 9 8 5 5 6 6 7 8 7 5 6
6 4 5 5 5 4 5 5 4 6 7 8 9 9 10 14 14 17 18 17 16 18 20 22 22 20 20 21 19 15 13 11 11 9 8 7 6 6 6 8 8 8 6 6
4 6 4 4 5 4 4 4 5 6 8 8 7 10 7 6 10 12 15 15 15 19 20 20 32 25 20 23 19 11 12 12 11 9 8 9 7 6 7 7 7 8 7 5
4 3 4 2 2 4 4 5 7 7 7 4 6 7 9 10 11 11 12 11 8 10 18 19 20 18 18 20 25 12 13 12 11 10 9 7 6 6 6 9 8 6 7 6
8 7 6 6 5 5 6 5 5 6 6 5 5 6 7 8 8 10 12 10 14 16 19 22 16 14 12 17 15 12 12 12 11 10 8 7 6 6 6 6 6 6 5 6
5 6 6 5 4 3 3 2 3 5 5 4 5 6 7 9 9 9 7 6 10 23 13 11 12 24 17 22 10 11 11 11 10 9 8 7 6 5 6 6 5 5 5 6
7 6 6 6 5 4 1 2 4 3 4 4 5 6 4 6 5 7 9 12 10 16 10 9 22 27 25 11 10 10 10 11 10 9 7 6 6 5 5 5 5 5 5 5
7 7 7 5 4 1 2 2 1 3 4 4 5 5 3 4 4 3 6 13 19 17 12 13 18 25 21 9 10 10 9 9 9 8 8 10 6 5 5 5 6 5 5 8
6 6 5 6 4 3 3 1 2 4 3 4 4 4 4 3 2 5 5 7 15 12 8 16 21 22 10 9 9 9 8 8 8 8 8 7 6 6 5 5 5 6 6 6
6 5 4 5 4 3 2 2 2 3 2 2 2 2 3 3 4 4 3 10 6 12 7 7 8 9 8 9 9 9 8 8 8 8 8 7 6 6 6 6 6 5 6 6
4 9 4 2 3 4 3 2 2 3 2 1 2 3 2 2 4 4 8 4 4 5 6 6 6 9 8 9 9 9 8 7 11 7 7 6 6 5 5 5 5 5 6 6
Wind_Direction
261 268 272 274 274 236 198 235 212 280 287 291 302 310 314 312 310 312 311 310 316 316 311 309 303 293 278 265 257 243 235 231 229 226 229 218 212 215 211 217 207 207 194 185
281 260 206 246 242 229 238 258 260 268 274 280 300 305 305 308 311 310 308 317 316 314 313 312 307 296 288 270 255 238 227 226 221 218 218 221 206 204 206 208 205 197 199 180
272 308 299 290 229 201 235 218 214 282 281 307 306 304 308 313 309 309 315 313 315 316 313 313 307 304 292 272 250 233 220 217 214 211 214 216 201 198 210 199 201 191 192 171
281 314 345 241 226 175 218 247 256 268 279 285 293 297 304 298 310 313 312 315 317 316 315 315 310 302 290 269 231 224 212 210 207 204 212 207 194 195 209 194 200 191 189 164
291 261 275 219 214 224 117 306 208 225 265 312 315 300 300 319 319 312 314 315 315 316 316 311 308 303 290 269 202 212 205 204 200 199 215 195 191 196 200 195 191 195 175 169
328 287 267 218 162 103 115 287 196 233 338 331 332 330 321 329 323 321 319 319 323 324 321 317 316 314 287 216 193 201 200 196 193 196 209 186 186 196 193 197 187 190 176 172
229 259 276 161 177 132 42 256 341 9 322 335 328 295 299 313 317 318 317 321 324 328 327 321 323 327 300 178 191 192 190 189 191 201 183 177 188 197 200 186 185 184 173 174
218 280 286 153 306 142 230 322 316 330 325 310 310 304 309 316 321 324 325 328 333 332 332 327 330 343 357 38 218 188 179 183 178 201 170 178 192 189 213 178 186 168 168 168
184 233 154 207 209 274 325 292 312 333 313 310 318 317 314 320 325 328 325 325 331 332 331 338 345 357 351 351 17 168 175 176 185 165 175 189 190 192 211 181 177 161 162 161
18 308 260 286 287 353 345 310 314 297 314 323 321 321 314 320 326 330 328 332 334 336 340 346 352 359 358 354 355 85 127 131 154 168 181 216 184 190 209 166 171 169 166 168
257 278 282 270 157 350 321 326 322 321 335 324 325 327 318 319 329 331 332 331 333 337 341 345 347 360 6 6 5 74 91 66 9 128 193 215 207 209 164 162 167 164 175 167
224 196 152 236 19 338 320 304 310 302 323 323 320 322 318 318 329 329 338 336 336 340 342 352 355 4 6 4 8 18 35 19 310 249 202 192 155 109 77 135 133 140 150 161
192 68 23 294 305 314 308 313 299 312 312 312 316 318 320 317 329 333 337 341 345 341 347 349 356 2 7 4 15 20 5 322 206 165 143 123 122 121 114 64 86 131 137 138
163 107 295 187 236 327 291 298 313 297 279 278 292 321 331 323 331 340 340 342 340 346 354 354 1 11 6 0 2 8 18 15 33 76 99 98 107 112 112 123 143 150 96 125
210 183 168 141 359 310 320 326 320 315 316 328 334 323 340 332 329 337 336 340 342 348 357 5 5 0 5 7 6 358 7 17 15 33 70 95 98 96 108 123 135 113 96 78
164 155 81 162 288 291 303 313 303 306 315 323 330 334 331 323 322 335 341 343 353 356 356 0 359 0 0 357 1 5 14 8 22 13 27 62 97 112 113 115 107 98 106 113
108 298 228 262 220 246 242 252 239 271 294 307 318 318 326 332 339 341 347 343 347 352 355 360 358 356 357 359 6 10 355 352 7 16 20 13 74 86 95 94 85 85 88 120
140 135 134 144 170 199 278 274 291 288 285 290 306 307 331 348 343 333 336 339 346 354 0 355 356 0 3 0 5 355 356 356 358 11 16 21 35 61 77 92 96 97 91 108
146 155 170 188 200 197 236 262 267 270 285 285 307 324 313 320 330 330 332 342 357 352 353 351 350 356 3 2 10 359 356 354 360 2 16 31 30 48 69 78 90 93 91 102
142 145 149 197 193 190 255 252 268 278 283 303 313 321 335 338 334 341 342 341 351 333 346 349 349 352 359 357 3 360 358 360 359 2 9 29 34 42 63 73 83 84 94 94
175 178 182 207 222 224 223 240 261 286 297 307 324 321 321 318 335 338 346 345 344 341 353 350 346 353 358 3 0 357 355 357 356 3 7 4 16 36 59 69 78 89 94 100
165 168 186 208 210 240 261 242 268 289 306 316 318 322 329 336 343 341 340 329 337 344 354 345 341 359 3 3 353 356 355 355 353 358 3 10 20 29 44 65 72 76 87 94
167 169 174 175 192 206 356 300 269 271 295 305 313 308 313 328 337 342 342 339 343 343 355 338 350 359 6 360 354 353 354 352 358 354 357 2 18 33 51 58 63 71 90 92
157 161 157 157 136 169 246 272 338 292 268 277 285 290 304 328 336 342 319 333 337 355 355 344 355 360 4 357 354 348 350 353 356 357 355 14 18 32 42 60 79 70 77 86
157 145 136 149 166 223 183 207 296 292 309 312 312 335 345 334 335 326 339 327 345 353 352 347 355 2 352 352 356 347 350 348 359 4 358 4 13 30 40 50 65 82 80 80
149 148 162 177 165 151 144 116 249 275 269 312 319 334 340 351 340 345 320 346 349 350 341 343 346 355 351 349 355 349 349 351 3 4 3 6 15 37 41 48 51 65 78 83
140 142 137 166 192 167 143 197 228 261 344 336 288 311 338 327 329 352 352 331 337 342 342 343 342 353 358 356 353 349 350 355 9 12 0 6 12 25 44 55 61 66 71 83